Location: Budapest
(47.4979°N, 19.0402°E)
Time: 19:14:21
(UTC+01:00)

Vanguard 1 - All Passes

Search period start: 22 January 2018 00:00
Search period end: 01 February 2018 00:00
Orbit: 649 x 3834 km, 34.2° (Epoch: 21 January)

Date Brightness Start Highest point End Pass type
(mag) Time Alt. Az. Time Alt. Az. Time Alt. Az.
22 Jan - 00:02:15 10° SW 00:09:13 36° SSE 00:21:07 10° ESE visible
22 Jan - 02:20:47 10° WSW 02:30:19 42° S 02:46:38 10° SE visible
22 Jan - 04:41:28 10° W 04:52:51 29° SSW 05:09:15 10° SSE visible
22 Jan - 07:11:00 10° WSW 07:15:26 11° SW 07:20:11 10° SSW daylight
22 Jan - 22:06:16 10° S 22:10:36 19° SE 22:16:34 10° ESE night (unlit)
23 Jan - 00:22:46 10° SW 00:29:57 39° SSE 00:42:22 10° ESE visible
23 Jan - 02:41:40 10° WSW 02:51:17 39° S 03:07:20 10° SE visible
23 Jan - 05:03:09 10° WSW 05:13:48 24° SSW 05:28:23 10° SSE visible
23 Jan - 22:26:06 10° SSW 22:31:01 23° SSE 22:38:14 10° ESE night (unlit)
24 Jan - 00:43:22 10° WSW 00:50:45 39° S 01:03:32 10° ESE visible
24 Jan - 03:02:40 10° WSW 03:12:16 34° SSW 03:27:45 10° SE visible
24 Jan - 05:25:28 10° WSW 05:34:43 19° SW 05:46:38 10° S visible
24 Jan - 22:46:15 10° SSW 22:51:32 27° SSE 22:59:39 10° ESE night (unlit)
25 Jan - 01:04:05 10° WSW 01:11:36 38° S 01:24:33 10° ESE visible
25 Jan - 03:23:51 10° WSW 03:33:15 30° SSW 03:47:49 10° SSE visible
25 Jan - 05:49:09 10° WSW 05:55:38 13° SW 06:03:13 10° SSW visible
25 Jan - 20:53:08 10° SE 20:53:28 10° SE 20:53:48 10° SE night (unlit)
25 Jan - 23:06:37 10° SW 23:12:09 30° SSE 23:20:56 10° ESE night (unlit)
26 Jan - 01:24:53 10° WSW 01:32:30 36° S 01:45:23 10° SE visible
26 Jan - 03:45:16 10° WSW 03:54:14 25° SSW 04:07:22 10° SSE visible
26 Jan - 21:10:58 10° S 21:13:50 14° SSE 21:17:19 10° ESE night (unlit)
26 Jan - 23:27:07 10° SW 23:32:50 32° S 23:42:05 10° ESE night (unlit)
27 Jan - 01:45:46 10° WSW 01:53:25 33° S 02:06:00 10° SE visible
27 Jan - 04:07:09 10° WSW 04:15:13 19° SSW 04:26:14 10° S visible
27 Jan - 21:30:39 10° SSW 21:34:17 18° SSE 21:39:03 10° ESE night (unlit)
27 Jan - 23:47:44 10° WSW 23:53:35 33° S 00:03:08 10° ESE night (unlit)
28 Jan - 02:06:49 10° WSW 02:14:21 28° SSW 02:26:17 10° SE visible
28 Jan - 04:29:59 10° WSW 04:36:11 14° SSW 04:43:53 10° S visible
28 Jan - 21:50:44 10° SSW 21:54:49 22° SSE 22:00:26 10° ESE night (unlit)
29 Jan - 00:08:27 10° WSW 00:14:24 32° S 00:24:02 10° SE visible
29 Jan - 02:28:05 10° WSW 02:35:19 24° SSW 02:46:10 10° SSE visible
29 Jan - 22:11:05 10° SW 22:15:26 25° SSE 22:21:37 10° ESE night (unlit)
30 Jan - 00:29:16 10° WSW 00:35:14 29° S 00:44:44 10° SE visible
30 Jan - 02:49:43 10° WSW 02:56:17 19° SSW 03:05:27 10° SSE visible
30 Jan - 20:15:51 10° SSE 20:17:13 11° SSE 20:18:41 10° SE night (unlit)
30 Jan - 22:31:36 10° SW 22:36:06 26° S 22:42:40 10° ESE night (unlit)
31 Jan - 00:50:13 10° WSW 00:56:07 26° S 01:05:11 10° SE visible
31 Jan - 03:12:07 10° SW 03:17:15 14° SSW 03:23:44 10° S visible
31 Jan - 20:35:08 10° S 20:37:44 15° SSE 20:40:43 10° SE night (unlit)
31 Jan - 22:52:14 10° SW 22:56:50 26° S 23:03:35 10° SE night (unlit)
